Location: Berg
(47.2344°N, 9.5296°E)
Time: 08:55:20
(UTC+00:00)

Cosmos 2278 Rocket - Visible Passes

Search period start: 09 May 2021 00:00
Search period end: 19 May 2021 00:00
Orbit: 842 x 844 km, 71.0° (Epoch: 08 May)

Date Brightness Start Highest point End Pass type
(mag) Time Alt. Az. Time Alt. Az. Time Alt. Az.
09 May 2.2 20:50:06 19° S 20:54:08 58° ESE 20:59:41 10° NE visible
09 May 4.0 22:33:44 10° WSW 22:38:35 28° NW 22:43:26 10° N visible
10 May 2.3 20:34:04 10° S 20:39:33 56° ESE 20:45:05 10° NE visible
10 May 4.0 22:19:05 10° WSW 22:23:58 29° NW 22:28:54 10° N visible
11 May 2.3 20:19:31 10° S 20:25:00 53° ESE 20:30:30 10° NE visible
11 May 4.0 22:04:26 10° WSW 22:09:22 30° NW 22:14:21 10° NNE visible
12 May 2.4 20:04:59 10° S 20:10:26 51° ESE 20:15:54 10° NE visible
12 May 3.9 21:49:46 10° WSW 21:54:46 31° NW 21:59:47 10° NNE visible
13 May 5.4 03:13:29 10° N 03:15:34 12° NNE 03:17:38 10° NE visible
13 May 2.4 19:50:27 10° S 19:55:52 49° ESE 20:01:18 10° NE visible
13 May 3.9 21:35:08 10° WSW 21:40:10 32° NW 21:45:14 10° NNE visible
14 May 5.4 02:59:02 10° NNE 03:00:56 12° NNE 03:02:49 10° NE visible
14 May 2.5 19:35:55 10° S 19:41:18 47° ESE 19:46:42 10° NE visible
14 May 3.9 21:20:29 10° WSW 21:25:33 33° NW 21:30:40 10° NNE visible
15 May 5.5 02:44:35 10° NNE 02:46:18 11° NNE 02:48:00 10° NE visible
15 May 2.5 19:21:24 10° S 19:26:44 45° ESE 19:32:06 10° NE visible
15 May 3.9 21:05:50 10° WSW 21:10:57 34° NW 21:16:07 10° NNE visible
16 May 5.6 02:30:10 10° NNE 02:31:39 11° NNE 02:33:10 10° NE visible
16 May 3.9 20:51:12 10° WSW 20:56:21 35° NW 21:01:33 10° NNE visible
17 May 5.7 02:15:46 10° NNE 02:17:01 11° NNE 02:18:16 10° NE visible
17 May 3.8 20:36:33 10° WSW 20:41:45 37° NW 20:46:59 10° NNE visible
17 May 5.6 22:27:07 10° NNW 22:27:39 10° NNW 22:28:10 10° NNW visible
18 May 5.8 02:01:26 10° NNE 02:02:23 10° NNE 02:03:20 10° NE visible
18 May 3.8 20:21:54 10° WSW 20:27:09 38° NW 20:32:26 10° NNE visible
18 May 5.6 22:12:02 10° NW 22:13:00 10° NNW 22:13:59 10° NNW visible
